Millville, NJ

12:16 PM EST on December 05, 2019 (GMT -0500)
Millville Municipal

Weather History for KMIV - October, 2019

Change the Weather History Date:

Friday, October 11, 2019

  Actual Average Record
Temperature  
Mean Temperature 61 °F -  
Max Temperature 69 °F 67 °F 85 °F (1949)
Min Temperature 51 °F 45 °F 32 °F (1972)
Degree Days  
Heating Degree Days 4    
Growing Degree Days 11 (Base 50)    
Moisture  
Dew Point 39 °F    
Average Humidity 47    
Maximum Humidity 77    
Minimum Humidity 35    
Precipitation  
Precipitation 0.00 in - - ()
Sea Level Pressure  
Sea Level Pressure 30.08 in    
Wind  
Wind Speed 10 mph (NNE)    
Max Wind Speed 18 mph    
Max Gust Speed 24 mph    
Visibility 10 miles    
Events      
Averages and records for this station are not official NWS values.
T = Trace of Precipitation, MM = Missing Value Source: NWS Daily Summary

Daily Weather History Graph

Daily Weather History Graph

Search for Another Location

Airport or City:

Astronomy

Oct. 11, 2019 Rise Set
Actual Time 7:05 AM EDT 6:27 PM EDT
Civil Twilight 6:38 AM EDT 6:54 PM EDT
Nautical Twilight 6:07 AM EDT 7:25 PM EDT
Astronomical Twilight 5:36 AM EDT 7:56 PM EDT
Moon 5:54 PM EDT (10/11) 4:45 AM EDT (10/11)
Length of Visible Light 12h 15m
Length of Day
11h 21m
Waxing Gibbous, 96% of the Moon is Illuminated
Oct 11
Waxing Gibbous
Oct 13
Full
Oct 21
Last Quarter
Oct 27
New
Nov 4
First Quarter

Hourly Weather History & Observations

Time (EDT) Temp. Dew Point Humidity Pressure Visibility Wind Dir Wind Speed Gust Speed Precip Events Conditions
12:54 AM 59.0 °F 35.1 °F 41% 30.12 in 10.0 mi North 9.2 mph - N/A   Overcast
1:54 AM 59.0 °F 30.9 °F 35% 30.12 in 10.0 mi NNE 8.1 mph - N/A   Mostly Cloudy
2:54 AM 57.9 °F 32.0 °F 37% 30.11 in 10.0 mi North 10.4 mph - N/A   Partly Cloudy
3:54 AM 55.9 °F 30.9 °F 39% 30.11 in 10.0 mi NNW 6.9 mph - N/A   Clear
4:54 AM 54.0 °F 30.9 °F 41% 30.11 in 10.0 mi North 8.1 mph - N/A   Clear
5:54 AM 54.0 °F 32.0 °F 43% 30.11 in 10.0 mi NNW 6.9 mph - N/A   Overcast
6:54 AM 54.0 °F 32.0 °F 43% 30.10 in 10.0 mi North 8.1 mph - N/A   Mostly Cloudy
7:54 AM 55.0 °F 32.0 °F 42% 30.11 in 10.0 mi North 11.5 mph - N/A   Clear
8:54 AM 57.9 °F 34.0 °F 41% 30.11 in 10.0 mi NNE 12.7 mph 24.2 mph N/A   Clear
9:54 AM 61.0 °F 37.0 °F 41% 30.11 in 10.0 mi North 18.4 mph 24.2 mph N/A   Clear
10:54 AM 62.1 °F 39.9 °F 44% 30.10 in 10.0 mi NNE 11.5 mph - N/A   Mostly Cloudy
11:54 AM 64.0 °F 41.0 °F 43% 30.10 in 10.0 mi North 13.8 mph 20.7 mph N/A   Overcast
12:54 PM 66.9 °F 41.0 °F 39% 30.08 in 10.0 mi NNE 11.5 mph - N/A   Overcast
1:54 PM 68.0 °F 43.0 °F 40% 30.07 in 10.0 mi NNE 16.1 mph - N/A   Scattered Clouds
2:54 PM 66.0 °F 43.0 °F 43% 30.05 in 10.0 mi NNE 11.5 mph - N/A   Overcast
3:54 PM 66.0 °F 45.0 °F 47% 30.05 in 10.0 mi NE 13.8 mph 19.6 mph N/A   Overcast
4:54 PM 64.9 °F 45.0 °F 48% 30.05 in 10.0 mi NE 10.4 mph - N/A   Overcast
5:54 PM 64.0 °F 45.0 °F 50% 30.05 in 10.0 mi NNE 6.9 mph - N/A   Overcast
6:54 PM 62.1 °F 45.0 °F 53% 30.06 in 10.0 mi NNE 5.8 mph - N/A   Overcast
7:54 PM 62.1 °F 46.0 °F 56% 30.06 in 10.0 mi NNE 6.9 mph - N/A   Overcast
8:54 PM 61.0 °F 45.0 °F 56% 30.05 in 10.0 mi NNE 9.2 mph - N/A   Overcast
9:54 PM 59.0 °F 45.0 °F 60% 30.05 in 10.0 mi NNE 8.1 mph - N/A   Partly Cloudy
10:54 PM 57.0 °F 45.0 °F 64% 30.04 in 10.0 mi NE 4.6 mph - N/A   Clear
11:54 PM 51.1 °F 44.1 °F 77% 30.02 in 10.0 mi North 3.5 mph - N/A   Clear